Location: Black Skies Observatory
(44.7549°N, 79.7179°W)
Time: 13:51:24
(UTC-05:00)

Envisat - Pass Details

Date: 02 November 2020
Orbit: 764 x 766 km, 98.1° (Epoch: 01 December)

Event Time Altitude Azimuth Distance (km) Brightness Sun altitude
Rises 17:52:41 0° 182° (S) 3,218 6.4 -8.9°
Reaches altitude 10° 17:55:04 10° 189° (S) 2,297 5.8 -9.3°
Maximum altitude 17:59:54 45° 262° (W) 1,034 4.3 -10.1°
Drops below altitude 10° 18:04:48 10° 335° (NNW) 2,312 5.7 -11.0°
Sets 18:07:13 0° 341° (NNW) 3,243 6.4 -11.4°
